This demonstration page uses our WeatherBlox Daily Observations layout. Learn more.

Hourly Observations for August 19, 2020

Temp ( °F °C ) Dew Point ( °F °C ) Humidity (%) Winds ( mph kmh ) Pressure ( in mb ) Visibility ( mi km ) Precip ( " mm )
12:51 am 00:51 Clear 85 29.4 52 11.1 32 32 ESE 6 9 29.82 1010 10 16.0934 0 0
1:51 am 01:51 Clear 85 29.4 52 11.1 32 32 ESE 13 20 29.82 1010 10 16.0934 0 0
2:51 am 02:51 Clear 81 27.2 50 10 34 34 E 7 11 29.82 1010 10 16.0934 0 0
3:51 am 03:51 Clear 80 26.7 48 8.9 33 33 E 9 15 29.82 1010 10 16.0934 0 0
4:51 am 04:51 Clear 79 26.1 48 8.9 34 34 Calm 29.83 1010 10 16.0934 0 0
5:51 am 05:51 Sunny 79 26.1 48 8.9 34 34 SE 9 15 29.84 1011 10 16.0934 0 0
6:51 am 06:51 Sunny 81 27.2 50 10 34 34 SE 10 17 29.87 1011 10 16.0934 0 0
7:51 am 07:51 Sunny 86 30 49 9.4 28 28 Calm 29.87 1012 10 16.0934 0 0
8:51 am 08:51 Sunny 91 32.8 50 10 25 25 SSE 3 6 29.85 1011 10 16.0934 0 0
9:51 am 09:51 Sunny 94 34.4 49 9.4 21 21 SE 7 11 29.84 1011 10 16.0934 0 0
10:51 am 10:51 Sunny 98 36.7 47 8.3 17 17 SE 10 17 29.82 1010 10 16.0934 0 0
11:51 am 11:51 Sunny 100 37.8 46 7.8 16 16 SSW 10 17 29.79 1009 10 16.0934 0 0
12:51 pm 12:51 Sunny 102 38.9 46 7.8 15 15 SW 8 13 29.76 1008 10 16.0934 0 0
1:51 pm 13:51 Sunny 103 39.4 45 7.2 14 14 SSW 9 15 29.72 1007 10 16.0934 0 0
2:51 pm 14:51 Sunny 106 41.1 42 5.6 11 11 SSW 8 13 29.68 1005 10 16.0934 0 0
3:51 pm 15:51 Sunny 105 40.6 40 4.4 11 11 Calm 29.67 1005 10 16.0934 0 0
4:51 pm 16:51 Sunny 105 40.6 41 5 11 11 S 8 13 29.66 1004 10 16.0934 0 0
5:51 pm 17:51 Sunny 104 40 40 4.4 11 11 S 3 6 29.65 1004 10 16.0934 0 0
6:51 pm 18:51 Sunny 100 37.8 43 6.1 14 14 SSW 3 6 29.66 1004 10 16.0934 0 0
7:51 pm 19:51 Clear 98 36.7 41 5 14 14 S 6 9 29.67 1005 10 16.0934 0 0
8:51 pm 20:51 Clear 96 35.6 40 4.4 14 14 NNE 5 7 29.68 1005 10 16.0934 0 0
9:51 pm 21:51 Clear 97 36.1 46 7.8 17 17 ENE 15 24 29.7 1006 10 16.0934 0 0
10:51 pm 22:51 Clear 96 35.6 45 7.2 17 17 ENE 10 17 29.71 1006 10 16.0934 0 0
11:51 pm 23:51 Clear 91 32.8 45 7.2 20 20 E 7 11 29.7 1006 10 16.0934 0 0

Powered by AerisWeather